Location: Melque
(41.0517°N, 4.4694°W)
Time: 09:00:49
(UTC+00:00)

Meteor 2-20 - Pass Details

Date: 21 March 2026
Orbit: 938 x 958 km, 82.5° (Epoch: 20 April)

Event Time Altitude Azimuth Distance (km) Brightness Sun altitude
Rises 04:54:09 0° 133° (SE) 3,614 7.9 -16.8°
Reaches altitude 10° 04:58:00 10° 109° (ESE) 2,679 7.7 -16.1°
Maximum altitude 05:00:53 14° 80° (E) 2,417 7.8 -15.6°
Drops below altitude 10° 05:03:47 10° 52° (NE) 2,692 7.9 -15.0°
Sets 05:07:38 0° 28° (NNE) 3,645 8.1 -14.3°
